FENGYUN 1C DEB, 35125

Orbit data source: Space-Track

FENGYUN 1C DEB, 35125 is space debris in SSO originally from a launch on Mon, 10 May 1999 UTC launched from the Taiyaun Space Center, China (TSC). Fengyun 1C debris stems from the Chinese weather satellite Fengyun-1C, which was intentionally destroyed by a Chinese anti-satellite missile in 2007. This event dramatically increased the amount of space debris, with thousands of trackable fragments posing hazards to satellites and human spaceflight. The Fengyun 1C debris cloud has become a focal point in discussions about space sustainability and the need for international regulations to prevent the creation of new debris.

Loading next visibility...
Identifier
35125, 1999-025DLD
Orbit
SSO
Country
Flag of CNCN / PRC
Related business
Manufacturer
Unknown
Mission
Spacecraft
Bus & Motor
Unknown
Mass
Unknown
Launch date (UTC)
1999-05-10 (27 years ago)
Launch vehicle
Unknown
Launch site
Taiyaun Space Center, China (TSC)
Object type
Payload
Rocket body
Debris
Shape & HBR
Unknown shape, 0.1 m
Radar Cross Section
Small (<0.1 m²)

Expand to show TLE details & history
Last TLE update: 5 days ago

TLE from 5 days ago
0 FENGYUN 1C DEB
1 35125U 99025DLD 26233.23672323  .00002135  00000-0  75917-3 0  9998
2 35125  98.2142 236.7492 0049640 262.1692  97.3857 14.34636153348862
Epoch: 2026-08-21T05:40Z
TLE epoch observation values (Epoch: 2026-08-21T05:40:52.887Z)
Latitude
-0.00001°
Longitude
-178.03554°
Altitude
783.965 km
Speed
7.459 km/s
True Right ascension
15h 46m 59s
True Declination
0° 00' 00"
Sunlit
Object was in daylight at epoch
Visualization orbit readout
Latitude
Unknown
Longitude
Unknown
Altitude
Unknown
Speed
Unknown
Apparent Right ascension
Unknown
Apparent Declination
Unknown
Sunlit
N/A
Visualization observer readout
Local Sidereal Time
00:06:26
Azimuth
Unknown
Elevation
Unknown
Doppler factor
Unknown
Orbital elements
Apogee altitude
808.892 km
Perigee altitude
737.891 km
Semi-major axis
7,151.529 km
Eccentricity
0.00496
Inclination
98.2142°
RAAN
236.7492°
Arg. of periapsis
262.1692°
True anomaly
97.94935°
Mean anomaly
97.3857°
Eccentric anomaly
97.66757°
Mean motion
3.58876 °/min
Orbital period
100.31 mins
BSTAR
0.00075917
Loading maneuver chart data...
Computing Atmospheric mass density...
Loading historical data...
Loading historical data...
Loading historical data...
Loading historical data...
Loading historical data...
Loading historical data...
Loading historical data...

Documentation

Showing up to 5 results
|